DW2849 Weather Reports


Display with metric or nautical units.
time (UTC)temp
F
wind
direction
speed
MPH
gust
MPH
rain 1hr
in
rain 24hr
in
rain mn
in
humidity
%
barometer
mb
20260505022256 50 200 2.0 4.0 0.04 0.16 0.16 87 1014.1
20260505021556 50 270 2.0 4.0 0.04 0.16 0.16 87 1014.3
20260505020856 50 254 1.0 3.0 0.03 0.15 0.15 87 1014.3
20260505020156 50 225 2.0 3.0 0.02 0.14 0.14 87 1014.2
20260505015456 50 236 1.0 3.0 0.02 0.14 0.14 87 1014.3
20260505014756 50 217 1.0 2.0 0.03 0.14 0.14 87 1014.2
20260505013904 50 222 1.0 4.0 0.03 0.14 0.14 87 1014.2
20260505013013 50 228 2.0 4.0 0.02 0.13 0.13 87 1014.3
20260505012313 50 228 1.0 2.0 0.03 0.13 0.13 87 1014.5
20260505011613 50 231 1.0 3.0 0.02 0.12 0.12 87 1014.4
20260505010914 50 267 2.0 6.0 0.03 0.12 0.12 87 1014.4
20260505010213 50 244 2.0 6.0 0.04 0.12 0.12 87 1014.4
20260505005513 50 214 2.0 4.0 0.04 0.12 0.12 87 1014.4
20260505004813 50 248 2.0 4.0 0.03 0.10 0.10 87 1014.4
20260505003922 50 278 2.0 4.0 0.04 0.10 0.10 87 1014.3
20260505003222 50 253 3.0 6.0 0.04 0.10 0.10 87 1014.1
20260505002522 50 236 2.0 6.0 0.04 0.09 0.09 87 1014.2
20260505001822 50 228 2.0 4.0 0.05 0.09 0.09 86 1014.2
20260505001122 50 238 2.0 4.0 0.04 0.08 0.08 87 1014.3
20260505000422 50 276 2.0 4.0 0.05 0.08 0.08 86 1014.3
20260504235722 50 276 2.0 5.0 0.05 0.07 0.07 86 1014.4
20260504234830 50 273 3.0 6.0 0.06 0.07 0.07 86 1014.3
20260504234130 50 315 2.0 4.0 0.05 0.06 0.06 86 1014.4
20260504233238 50 276 2.0 4.0 0.06 0.06 0.06 86 1014.3
20260504232539 50 278 3.0 4.0 0.05 0.05 0.05 86 1014.2
20260504231840 51 287 2.0 4.0 0.04 0.04 0.04 86 1014.3
20260504230947 51 270 3.0 6.0 0.03 0.03 0.03 86 1014.4
20260504230247 51 256 2.0 6.0 0.03 0.03 0.03 86 1014.5
20260504225547 51 270 3.0 6.0 0.02 0.02 0.02 86 1014.5
20260504224847 51 270 3.0 5.0 0.01 0.01 0.01 86 1014.4
20260504224148 51 292 3.0 8.0 0.01 0.01 0.01 85 1014.5
20260504223447 51 256 3.0 8.0 0.00 0.00 0.00 85 1014.4
20260504222556 52 268 3.0 5.0 0.00 0.00 0.00 84 1014.4
20260504221856 53 272 3.0 5.0 0.00 0.00 0.00 82 1014.3
20260504221156 53 248 2.0 4.0 0.00 0.00 0.00 82 1014.3
20260504220456 53 264 3.0 8.0 0.00 0.00 0.00 82 1014.4
20260504215759 53 275 2.0 6.0 0.00 0.00 0.00 81 1014.3
20260504215056 54 268 3.0 6.0 0.00 0.00 0.00 80 1014.5
20260504214205 55 250 2.0 7.0 0.00 0.00 0.00 80 1014.6
20260504213505 55 278 2.0 5.0 0.00 0.00 0.00 79 1014.6
20260504212805 56 238 3.0 6.0 0.00 0.00 0.00 79 1014.6
20260504212105 56 215 2.0 5.0 0.00 0.00 0.00 79 1014.7
20260504211404 57 210 2.0 4.0 0.00 0.00 0.00 78 1014.6
20260504210705 57 222 2.0 5.0 0.00 0.00 0.00 78 1014.6
20260504210005 57 256 2.0 6.0 0.00 0.00 0.00 77 1014.6
20260504205115 57 272 3.0 6.0 0.00 0.00 0.00 78 1014.6
20260504204413 57 272 3.0 9.0 0.00 0.00 0.00 78 1014.6
20260504203713 57 268 4.0 9.0 0.00 0.00 0.00 77 1014.6
20260504203013 58 268 2.0 8.0 0.00 0.00 0.00 78 1014.6
20260504202122 57 255 3.0 8.0 0.00 0.00 0.00 78 1014.6
20260504201423 57 255 3.0 6.0 0.00 0.00 0.00 78 1014.5
20260504200722 57 210 3.0 4.0 0.00 0.00 0.00 78 1014.5
20260504200022 58 225 3.0 6.0 0.00 0.00 0.00 77 1014.5
20260504195131 58 194 3.0 5.0 0.00 0.00 0.00 77 1014.5
20260504194431 58 210 3.0 8.0 0.00 0.00 0.00 77 1014.5
20260504193733 59 238 3.0 5.0 0.00 0.00 0.00 76 1014.5
20260504193031 59 205 3.0 5.0 0.00 0.00 0.00 75 1014.4
20260504192331 61 220 3.0 5.0 0.00 0.00 0.00 74 1014.4
20260504191631 60 178 3.0 5.0 0.00 0.00 0.00 74 1014.4
20260504190740 60 238 3.0 5.0 0.00 0.00 0.00 75 1014.4
20260504190042 61 220 3.0 7.0 0.00 0.00 0.00 74 1014.4
20260504185340 61 230 3.0 9.0 0.00 0.00 0.00 73 1014.3
20260504184640 59 281 3.0 6.0 0.00 0.00 0.00 75 1014.4
20260504183940 59 285 2.0 6.0 0.00 0.00 0.00 76 1014.4
20260504183240 60 292 3.0 7.0 0.00 0.00 0.00 74 1014.3
20260504182540 58 255 3.0 7.0 0.00 0.00 0.00 77 1014.3
20260504181648 59 225 3.0 6.0 0.00 0.00 0.00 76 1014.4
20260504180948 59 212 3.0 6.0 0.00 0.00 0.00 74 1014.5
20260504180057 57 212 2.0 3.0 0.00 0.00 0.00 76 1014.5
20260504175357 58 335 2.0 6.0 0.00 0.00 0.00 75 1014.4
20260504174700 57 282 3.0 6.0 0.00 0.00 0.00 77 1014.4
20260504173957 57 209 3.0 4.0 0.00 0.00 0.00 77 1014.4
20260504173257 57 18 2.0 3.0 0.00 0.00 0.00 77 1014.4
20260504172405 56 318 2.0 4.0 0.00 0.00 0.00 78 1014.3
20260504171706 56 300 2.0 4.0 0.00 0.00 0.00 77 1014.2
20260504171008 56 335 2.0 4.0 0.00 0.00 0.00 77 1014.2
20260504170306 56 330 2.0 5.0 0.00 0.00 0.00 76 1014.0
20260504160323 53 267 2.0 4.0 0.00 0.00 0.00 80 1014.1
20260504150532 50 332 0.0 4.0 0.00 0.00 0.00 83 1014.0
20260504141249 48 270 1.0 4.0 0.00 0.00 0.00 85 1013.8
20260504140552 48 267 2.0 4.0 0.00 0.00 0.00 85 1013.8
20260504130758 48 257 1.0 4.0 0.00 0.00 0.00 85 1013.5
20260504120115 49 315 0.0 2.0 0.00 0.00 0.00 85 1013.3
20260504110323 49 270 2.0 3.0 0.00 0.00 0.00 85 1013.1
20260504100149 49 273 2.0 4.0 0.00 0.00 0.00 85 1013.1
20260504081814 48 222 1.0 3.0 0.00 0.00 0.00 85 1013.5
20260504081113 48 205 2.0 2.0 0.00 0.00 0.00 85 1013.4
20260504080413 48 212 2.0 2.0 0.00 0.00 0.00 85 1013.5
20260504050657 50 225 1.0 2.0 0.00 0.00 0.00 85 1013.6
20260504045957 50 230 1.0 4.0 0.00 0.00 0.00 85 1013.5
20260504045258 50 270 2.0 4.0 0.00 0.00 0.00 85 1013.5
20260504044557 50 258 2.0 3.0 0.00 0.00 0.00 85 1013.3
20260504043706 50 228 1.0 5.0 0.00 0.00 0.00 85 1013.1
20260504043005 49 265 2.0 3.0 0.00 0.00 0.00 85 1013.1
20260504042305 49 240 1.0 2.0 0.00 0.00 0.00 85 1013.0
20260504041606 49 225 1.0 2.0 0.00 0.00 0.00 85 1013.0
20260504040905 49 260 1.0 2.0 0.00 0.00 0.00 85 1012.9
20260504040221 49 225 1.0 3.0 0.00 0.00 0.00 85 1012.9
20260504035505 49 265 2.0 3.0 0.00 0.00 0.00 85 1012.9
20260504034805 49 220 1.0 3.0 0.00 0.00 0.00 85 1012.8
20260504034106 49 228 1.0 3.0 0.00 0.00 0.00 85 1012.7
20260504033212 50 180 1.0 2.0 0.00 0.00 0.00 85 1012.7
20260504032512 50 202 1.0 2.0 0.00 0.00 0.00 85 1012.5
20260504031813 50 180 1.0 2.0 0.00 0.00 0.00 85 1012.5
20260504031113 50 202 1.0 2.0 0.00 0.00 0.00 84 1012.5
20260504030221 51 180 1.0 2.0 0.00 0.00 0.00 84 1012.5
20260504025521 51 228 2.0 2.0 0.00 0.00 0.00 84 1012.3
20260504024821 51 225 1.0 3.0 0.00 0.00 0.00 84 1012.3
20260504024121 51 222 2.0 3.0 0.00 0.00 0.00 83 1012.3
20260504023421 52 232 1.0 2.0 0.00 0.00 0.00 83 1012.2